AAL408 KLAX-PANC

Flight info

Callsign AAL408
Flight time N/A
Altitude 32000
Route SUMMR2 SCTRR PYE J143 ENI FOT KYLLE B453 MDO YESKA6
Aircraft A321/M-VGDW/C

Departure

Time 2026-05-06 09:18
Airport Los Angeles International Airport (KLAX)

Arrival

Time N/A
Airport Ted Stevens Anchorage International Airport (PANC)
Time Latitude Longitude Altitude Speed Heading
2026-05-06 08:51 33.94038 -118.40614 125 ft 0 kts 266°
2026-05-06 09:05 33.94039 -118.40613 125 ft 1 kts 266°
2026-05-06 09:05 33.94039 -118.40601 125 ft 0 kts 268°
2026-05-06 09:06 33.94042 -118.40585 125 ft 2 kts 239°
2026-05-06 09:06 33.94051 -118.40572 125 ft 2 kts 216°
2026-05-06 09:06 33.94064 -118.40564 125 ft 2 kts 191°
2026-05-06 09:06 33.94074 -118.40562 125 ft 0 kts 174°
2026-05-06 09:07 33.94081 -118.40564 125 ft 0 kts 173°
2026-05-06 09:07 33.94080 -118.40564 125 ft 0 kts 173°
2026-05-06 09:09 33.94069 -118.40562 125 ft 3 kts 174°
2026-05-06 09:09 33.94041 -118.40559 125 ft 4 kts 174°
2026-05-06 09:09 33.94007 -118.40554 125 ft 5 kts 173°
2026-05-06 09:09 33.93966 -118.40548 125 ft 6 kts 173°
2026-05-06 09:10 33.93922 -118.40541 125 ft 6 kts 173°
2026-05-06 09:10 33.93872 -118.40533 125 ft 7 kts 173°
2026-05-06 09:10 33.93834 -118.40506 125 ft 7 kts 102°
2026-05-06 09:10 33.93838 -118.40404 123 ft 13 kts 83°
2026-05-06 09:11 33.93852 -118.40269 122 ft 19 kts 83°
2026-05-06 09:11 33.93869 -118.40103 119 ft 20 kts 83°
2026-05-06 09:11 33.93887 -118.39931 117 ft 20 kts 82°
2026-05-06 09:11 33.93905 -118.39756 115 ft 21 kts 84°
2026-05-06 09:12 33.93923 -118.39580 112 ft 21 kts 83°
2026-05-06 09:12 33.93941 -118.39401 110 ft 21 kts 83°
2026-05-06 09:12 33.93959 -118.39224 109 ft 21 kts 85°
2026-05-06 09:12 33.93978 -118.39048 107 ft 21 kts 84°
2026-05-06 09:13 33.93994 -118.38876 106 ft 20 kts 83°
2026-05-06 09:13 33.94011 -118.38707 105 ft 20 kts 81°
2026-05-06 09:13 33.94028 -118.38541 105 ft 19 kts 83°
2026-05-06 09:13 33.94045 -118.38379 104 ft 19 kts 84°
2026-05-06 09:14 33.94061 -118.38220 103 ft 18 kts 84°
2026-05-06 09:14 33.94076 -118.38072 103 ft 12 kts 83°
2026-05-06 09:14 33.94076 -118.38030 102 ft 0 kts 114°
2026-05-06 09:15 33.94075 -118.38029 102 ft 0 kts 115°
2026-05-06 09:15 33.94064 -118.38016 102 ft 5 kts 147°
2026-05-06 09:15 33.94005 -118.38004 102 ft 8 kts 197°
2026-05-06 09:16 33.93980 -118.38068 103 ft 9 kts 263°
2026-05-06 09:16 33.93978 -118.38087 103 ft 0 kts 263°
2026-05-06 09:16 33.93958 -118.38273 104 ft 50 kts 263°
2026-05-06 09:17 33.93894 -118.38911 107 ft 100 kts 264°
2026-05-06 09:17 33.93792 -118.39907 117 ft 140 kts 263°
2026-05-06 09:17 33.93658 -118.41199 151 ft 167 kts 263°
2026-05-06 09:17 33.93510 -118.42569 486 ft 162 kts 262°
2026-05-06 09:18 33.93346 -118.43903 778 ft 164 kts 263°
2026-05-06 09:18 33.93211 -118.45303 1003 ft 172 kts 264°
2026-05-06 09:18 33.93091 -118.46777 1215 ft 182 kts 265°
2026-05-06 09:18 33.92968 -118.48326 1794 ft 187 kts 265°
2026-05-06 09:19 33.92847 -118.49855 2473 ft 187 kts 266°
2026-05-06 09:19 33.92721 -118.51424 3066 ft 192 kts 266°
2026-05-06 09:19 33.92590 -118.53040 3615 ft 199 kts 266°
2026-05-06 09:19 33.92454 -118.54730 4087 ft 211 kts 266°
2026-05-06 09:20 33.92303 -118.56576 4450 ft 231 kts 266°
2026-05-06 09:20 33.92137 -118.58611 4804 ft 254 kts 265°
2026-05-06 09:20 33.91958 -118.60761 5470 ft 263 kts 265°
2026-05-06 09:20 33.91801 -118.62926 6190 ft 260 kts 268°
2026-05-06 09:21 33.91765 -118.65128 6671 ft 264 kts 270°
2026-05-06 09:21 33.91758 -118.67340 7169 ft 267 kts 270°
2026-05-06 09:21 33.91754 -118.69572 7701 ft 270 kts 270°
2026-05-06 09:21 33.91750 -118.71851 8221 ft 274 kts 270°
2026-05-06 09:22 33.91742 -118.74136 8731 ft 278 kts 270°
2026-05-06 09:22 33.91733 -118.76482 9263 ft 281 kts 270°
2026-05-06 09:22 33.91723 -118.78848 9805 ft 285 kts 270°
2026-05-06 09:22 33.91710 -118.81210 10323 ft 288 kts 270°
2026-05-06 09:23 33.91711 -118.83647 10912 ft 292 kts 272°
2026-05-06 09:23 33.91772 -118.85986 11583 ft 292 kts 274°
2026-05-06 09:23 33.91845 -118.88342 12219 ft 293 kts 274°
2026-05-06 09:23 33.91921 -118.90812 12845 ft 297 kts 274°
2026-05-06 09:24 33.92000 -118.93330 13185 ft 307 kts 274°
2026-05-06 09:24 33.92079 -118.95916 13411 ft 317 kts 274°
2026-05-06 09:24 33.92161 -118.98620 13587 ft 327 kts 276°
2026-05-06 09:24 33.92519 -119.01339 13762 ft 334 kts 288°
2026-05-06 09:25 33.93416 -119.03954 14024 ft 338 kts 301°
2026-05-06 09:25 33.94627 -119.06357 14383 ft 340 kts 303°
2026-05-06 09:25 33.95900 -119.08778 14789 ft 342 kts 304°
2026-05-06 09:25 33.97173 -119.11204 15192 ft 344 kts 303°
2026-05-06 09:26 33.98434 -119.13629 15576 ft 346 kts 303°
2026-05-06 09:26 33.99719 -119.16090 15962 ft 347 kts 306°
2026-05-06 09:26 34.01228 -119.18378 16325 ft 349 kts 314°
2026-05-06 09:26 34.03003 -119.20330 16701 ft 349 kts 323°
2026-05-06 09:27 34.04984 -119.22083 17080 ft 350 kts 325°
2026-05-06 09:27 34.06965 -119.23773 17416 ft 353 kts 325°
2026-05-06 09:27 34.08976 -119.25485 17763 ft 355 kts 325°
2026-05-06 09:27 34.10997 -119.27211 18133 ft 356 kts 325°
2026-05-06 09:28 34.13000 -119.28926 18489 ft 357 kts 324°
2026-05-06 09:28 34.15041 -119.30679 18848 ft 359 kts 324°
2026-05-06 09:28 34.17087 -119.32438 19198 ft 360 kts 324°
2026-05-06 09:28 34.19122 -119.34190 19526 ft 362 kts 324°
2026-05-06 09:29 34.21170 -119.35956 19853 ft 363 kts 324°
2026-05-06 09:29 34.23239 -119.37743 20140 ft 366 kts 324°
2026-05-06 09:29 34.25317 -119.39537 20412 ft 369 kts 323°
2026-05-06 09:29 34.27406 -119.41343 20721 ft 371 kts 323°
2026-05-06 09:30 34.29487 -119.43143 21036 ft 372 kts 323°
2026-05-06 09:30 34.31618 -119.44989 21351 ft 373 kts 323°
2026-05-06 09:30 34.33733 -119.46821 21641 ft 375 kts 323°
2026-05-06 09:30 34.35857 -119.48663 21945 ft 376 kts 323°
2026-05-06 09:31 34.37967 -119.50491 22231 ft 378 kts 323°
2026-05-06 09:31 34.40111 -119.52351 22538 ft 379 kts 323°
2026-05-06 09:31 34.42214 -119.54247 22834 ft 379 kts 321°
2026-05-06 09:31 34.44330 -119.56228 23101 ft 381 kts 320°
2026-05-06 09:32 34.46415 -119.58191 23374 ft 383 kts 320°
2026-05-06 09:32 34.48514 -119.60171 23663 ft 384 kts 320°
2026-05-06 09:32 34.50612 -119.62151 23952 ft 385 kts 320°
2026-05-06 09:32 34.52675 -119.64098 24217 ft 386 kts 320°
2026-05-06 09:33 34.54815 -119.66118 24484 ft 387 kts 320°
2026-05-06 09:33 34.56922 -119.68110 24753 ft 388 kts 320°
2026-05-06 09:33 34.59074 -119.70142 25018 ft 390 kts 320°
2026-05-06 09:33 34.61225 -119.72177 25276 ft 391 kts 320°
2026-05-06 09:34 34.63367 -119.74204 25527 ft 392 kts 319°
2026-05-06 09:34 34.65524 -119.76247 25775 ft 394 kts 319°
2026-05-06 09:34 34.67689 -119.78300 26008 ft 395 kts 319°
2026-05-06 09:34 34.69861 -119.80360 26247 ft 397 kts 320°
2026-05-06 09:35 34.72049 -119.82436 26490 ft 398 kts 319°
2026-05-06 09:35 34.74217 -119.84495 26717 ft 399 kts 320°
2026-05-06 09:35 34.76402 -119.86571 26949 ft 400 kts 319°
2026-05-06 09:35 34.78601 -119.88661 27190 ft 401 kts 319°
2026-05-06 09:36 34.80810 -119.90763 27405 ft 402 kts 319°
2026-05-06 09:36 34.83014 -119.92860 27617 ft 403 kts 319°
2026-05-06 09:36 34.85222 -119.94965 27844 ft 404 kts 319°
2026-05-06 09:36 34.87425 -119.97065 28089 ft 405 kts 319°
2026-05-06 09:37 34.89658 -119.99197 28312 ft 406 kts 319°
2026-05-06 09:37 34.91893 -120.01332 28522 ft 407 kts 319°
2026-05-06 09:37 34.94109 -120.03449 28739 ft 408 kts 319°
2026-05-06 09:37 34.96335 -120.05579 28961 ft 409 kts 319°
2026-05-06 09:38 34.98610 -120.07758 29174 ft 409 kts 319°
2026-05-06 09:38 35.00861 -120.09915 29372 ft 410 kts 319°
2026-05-06 09:38 35.03099 -120.12060 29563 ft 411 kts 319°
2026-05-06 09:38 35.05367 -120.14234 29738 ft 412 kts 319°
2026-05-06 09:39 35.07645 -120.16421 29898 ft 413 kts 319°
2026-05-06 09:39 35.09893 -120.18582 30056 ft 415 kts 319°
2026-05-06 09:39 35.12177 -120.20780 30090 ft 418 kts 319°
2026-05-06 09:40 35.16824 -120.25256 30070 ft 427 kts 319°
2026-05-06 09:40 35.24004 -120.31857 30052 ft 433 kts 321°
2026-05-06 09:41 35.28831 -120.36250 30048 ft 433 kts 321°
2026-05-06 09:41 35.33673 -120.40681 30046 ft 433 kts 320°
2026-05-06 09:42 35.38499 -120.45110 30039 ft 433 kts 320°
2026-05-06 09:42 35.43333 -120.49557 30034 ft 433 kts 320°
2026-05-06 09:43 35.48138 -120.53986 30034 ft 434 kts 320°
2026-05-06 09:43 35.52974 -120.58444 30037 ft 434 kts 321°
2026-05-06 09:44 35.57935 -120.62743 30038 ft 434 kts 322°
2026-05-06 09:44 35.62896 -120.66981 30041 ft 434 kts 322°
2026-05-06 09:45 35.67820 -120.71210 30043 ft 434 kts 322°
2026-05-06 09:45 35.72780 -120.75489 30041 ft 434 kts 322°
2026-05-06 09:46 35.77708 -120.79748 30039 ft 434 kts 322°
2026-05-06 09:46 35.82679 -120.84054 30034 ft 434 kts 322°
2026-05-06 09:47 35.87605 -120.88329 30034 ft 435 kts 322°
2026-05-06 09:47 35.92540 -120.92619 30030 ft 435 kts 322°
2026-05-06 09:48 35.97486 -120.96925 30028 ft 435 kts 322°
2026-05-06 09:48 36.02438 -121.01241 30031 ft 435 kts 322°
2026-05-06 09:49 36.07354 -121.05532 30027 ft 435 kts 322°
2026-05-06 09:49 36.12284 -121.09845 30027 ft 435 kts 322°
2026-05-06 09:50 36.17249 -121.14194 30031 ft 436 kts 322°
2026-05-06 09:50 36.22175 -121.18517 30034 ft 436 kts 322°
2026-05-06 09:51 36.27114 -121.22858 30040 ft 436 kts 322°
2026-05-06 09:51 36.32061 -121.27213 30045 ft 437 kts 322°
2026-05-06 09:52 36.37015 -121.31580 30046 ft 437 kts 322°
2026-05-06 09:52 36.41980 -121.35963 30044 ft 437 kts 322°
2026-05-06 09:53 36.46937 -121.40347 30041 ft 437 kts 322°
2026-05-06 09:53 36.51886 -121.44731 30041 ft 438 kts 322°
2026-05-06 09:54 36.56842 -121.49128 30037 ft 438 kts 322°
2026-05-06 09:54 36.61821 -121.53552 30042 ft 438 kts 322°
2026-05-06 09:55 36.66783 -121.57969 30045 ft 439 kts 322°
2026-05-06 09:55 36.71740 -121.62389 30050 ft 439 kts 322°
2026-05-06 09:56 36.76702 -121.66817 30052 ft 438 kts 321°
2026-05-06 09:56 36.81673 -121.71265 30052 ft 438 kts 321°
2026-05-06 09:57 36.86589 -121.75669 30052 ft 438 kts 321°
2026-05-06 09:57 36.91550 -121.80121 30055 ft 439 kts 321°
2026-05-06 09:58 36.96511 -121.84580 30053 ft 438 kts 321°
2026-05-06 09:58 37.01466 -121.89042 30050 ft 439 kts 321°
2026-05-06 09:59 37.06428 -121.93517 30049 ft 440 kts 321°
2026-05-06 09:59 37.11425 -121.98031 30049 ft 441 kts 321°
2026-05-06 10:00 37.16402 -122.02532 30052 ft 441 kts 321°
2026-05-06 10:00 37.21363 -122.07028 30054 ft 441 kts 321°
2026-05-06 10:01 37.26340 -122.11544 30057 ft 440 kts 321°
2026-05-06 10:01 37.31269 -122.16027 30057 ft 441 kts 321°
2026-05-06 10:02 37.36262 -122.20575 30054 ft 442 kts 321°
2026-05-06 10:02 37.41214 -122.25095 30053 ft 442 kts 321°
2026-05-06 10:03 37.46191 -122.29645 30050 ft 441 kts 321°
2026-05-06 10:03 37.51188 -122.34218 30053 ft 442 kts 321°
2026-05-06 10:04 37.56135 -122.38754 30055 ft 443 kts 321°
2026-05-06 10:04 37.61150 -122.43360 30053 ft 444 kts 321°
2026-05-06 10:05 37.66148 -122.47957 30055 ft 445 kts 321°
2026-05-06 10:05 37.71120 -122.52541 30054 ft 445 kts 321°
2026-05-06 10:06 37.76127 -122.57165 30052 ft 445 kts 321°
2026-05-06 10:06 37.81087 -122.61752 30047 ft 444 kts 321°
2026-05-06 10:07 37.86076 -122.66376 30037 ft 444 kts 321°
2026-05-06 10:07 37.91064 -122.71005 30036 ft 444 kts 321°
2026-05-06 10:08 37.96068 -122.75660 30030 ft 445 kts 320°
2026-05-06 10:08 38.01014 -122.80270 30031 ft 446 kts 321°
2026-05-06 10:09 38.06196 -122.84673 30033 ft 449 kts 327°
2026-05-06 10:09 38.11820 -122.88196 30033 ft 451 kts 334°
2026-05-06 10:10 38.17777 -122.90860 30035 ft 453 kts 339°
2026-05-06 10:10 38.23769 -122.93317 30034 ft 454 kts 339°
2026-05-06 10:11 38.29787 -122.95793 30040 ft 455 kts 338°
2026-05-06 10:11 38.35833 -122.98295 30044 ft 455 kts 339°
2026-05-06 10:12 38.41863 -123.00797 30041 ft 456 kts 338°
2026-05-06 10:12 38.47856 -123.03291 30043 ft 455 kts 338°
2026-05-06 10:13 38.53888 -123.05806 30046 ft 456 kts 338°
2026-05-06 10:13 38.59917 -123.08322 30049 ft 456 kts 338°
2026-05-06 10:14 38.65952 -123.10847 30044 ft 456 kts 338°
2026-05-06 10:14 38.71978 -123.13371 30044 ft 456 kts 338°
2026-05-06 10:15 38.78039 -123.15916 30050 ft 456 kts 338°
2026-05-06 10:15 38.84053 -123.18446 30043 ft 456 kts 339°
2026-05-06 10:16 38.90067 -123.20980 30036 ft 456 kts 339°
2026-05-06 10:16 38.96091 -123.23521 30032 ft 456 kts 338°
2026-05-06 10:17 39.02126 -123.26074 30030 ft 456 kts 338°
2026-05-06 10:17 39.08022 -123.28973 30031 ft 454 kts 333°
2026-05-06 10:18 39.13792 -123.32295 30034 ft 454 kts 332°
2026-05-06 10:18 39.19556 -123.35654 30034 ft 453 kts 332°
2026-05-06 10:19 39.25310 -123.39007 30031 ft 453 kts 332°
2026-05-06 10:19 39.31073 -123.42366 30036 ft 453 kts 332°
2026-05-06 10:20 39.36807 -123.45712 30038 ft 454 kts 332°
2026-05-06 10:20 39.42577 -123.49087 30039 ft 454 kts 332°
2026-05-06 10:21 39.48366 -123.52477 30047 ft 455 kts 332°
2026-05-06 10:21 39.54123 -123.55853 30051 ft 455 kts 332°
2026-05-06 10:22 39.59900 -123.59249 30051 ft 456 kts 332°
2026-05-06 10:22 39.65701 -123.62664 30054 ft 456 kts 332°
2026-05-06 10:23 39.71474 -123.66070 30062 ft 455 kts 331°
2026-05-06 10:23 39.77262 -123.69490 30068 ft 456 kts 331°
2026-05-06 10:24 39.83015 -123.72898 30064 ft 456 kts 331°
2026-05-06 10:24 39.88824 -123.76346 30059 ft 456 kts 331°
2026-05-06 10:25 39.94588 -123.79772 30062 ft 456 kts 331°
2026-05-06 10:25 40.00367 -123.83212 30060 ft 456 kts 331°
2026-05-06 10:26 40.06149 -123.86660 30063 ft 458 kts 331°
2026-05-06 10:26 40.11982 -123.90148 30056 ft 459 kts 331°
2026-05-06 10:27 40.17793 -123.93629 30061 ft 460 kts 331°
2026-05-06 10:27 40.23600 -123.97109 30059 ft 461 kts 331°
2026-05-06 10:28 40.29436 -124.00618 30060 ft 461 kts 331°
2026-05-06 10:28 40.35276 -124.04137 30062 ft 461 kts 331°
2026-05-06 10:29 40.41129 -124.07669 30068 ft 461 kts 331°
2026-05-06 10:29 40.46963 -124.11197 30076 ft 461 kts 331°
2026-05-06 10:30 40.52803 -124.14738 30083 ft 462 kts 331°
2026-05-06 10:30 40.58644 -124.18285 30083 ft 462 kts 331°
2026-05-06 10:31 40.64491 -124.21851 30093 ft 463 kts 330°
2026-05-06 10:31 40.70115 -124.25903 30096 ft 461 kts 324°
2026-05-06 10:32 40.75536 -124.30386 30103 ft 461 kts 324°
2026-05-06 10:32 40.80948 -124.34917 30098 ft 460 kts 323°
2026-05-06 10:33 40.86345 -124.39435 30110 ft 460 kts 324°
2026-05-06 10:33 40.91748 -124.43961 30115 ft 461 kts 324°
2026-05-06 10:34 40.97159 -124.48502 30112 ft 462 kts 324°
2026-05-06 10:34 41.02585 -124.53062 30118 ft 462 kts 324°
2026-05-06 10:35 41.08024 -124.57638 30115 ft 461 kts 324°
2026-05-06 10:35 41.13433 -124.62198 30119 ft 461 kts 324°
2026-05-06 10:36 41.18816 -124.66750 30129 ft 461 kts 323°
2026-05-06 10:36 41.24214 -124.71319 30124 ft 460 kts 323°
2026-05-06 10:37 41.29600 -124.75891 30125 ft 461 kts 323°
2026-05-06 10:37 41.34996 -124.80479 30132 ft 461 kts 323°
2026-05-06 10:38 41.40409 -124.85092 30144 ft 461 kts 323°
2026-05-06 10:38 41.45802 -124.89698 30141 ft 461 kts 323°
2026-05-06 10:39 41.51220 -124.94334 30139 ft 461 kts 323°
2026-05-06 10:39 41.56636 -124.98973 30150 ft 462 kts 323°
2026-05-06 10:40 41.62025 -125.03602 30140 ft 462 kts 323°
2026-05-06 10:40 41.67401 -125.08226 30146 ft 462 kts 323°
2026-05-06 10:41 41.72809 -125.12890 30153 ft 461 kts 323°
2026-05-06 10:41 41.78188 -125.17538 30151 ft 461 kts 323°
2026-05-06 10:42 41.83557 -125.22187 30149 ft 462 kts 323°
2026-05-06 10:42 41.88965 -125.26881 30147 ft 462 kts 323°
2026-05-06 10:43 41.94350 -125.31563 30155 ft 463 kts 322°
2026-05-06 10:44 42.02425 -125.38601 30150 ft 462 kts 323°
2026-05-06 10:44 42.07790 -125.43288 30153 ft 463 kts 323°
2026-05-06 10:45 42.13217 -125.48039 30151 ft 464 kts 322°
2026-05-06 10:45 42.18612 -125.52774 30155 ft 464 kts 322°
2026-05-06 10:46 42.23987 -125.57499 30154 ft 464 kts 322°
2026-05-06 10:46 42.29400 -125.62270 30154 ft 464 kts 322°
2026-05-06 10:47 42.34787 -125.67027 30156 ft 464 kts 322°
2026-05-06 10:47 42.40169 -125.71788 30156 ft 464 kts 322°
2026-05-06 10:48 42.45605 -125.76608 30159 ft 465 kts 322°
2026-05-06 10:48 42.50989 -125.81390 30159 ft 465 kts 322°
2026-05-06 10:49 42.56415 -125.86221 30158 ft 465 kts 322°
2026-05-06 10:49 42.61818 -125.91042 30160 ft 465 kts 322°
2026-05-06 10:50 42.67185 -125.95840 30162 ft 465 kts 321°
2026-05-06 10:50 42.72591 -126.00684 30163 ft 465 kts 322°
2026-05-06 10:51 42.77972 -126.05517 30164 ft 465 kts 321°
2026-05-06 10:51 42.83372 -126.10375 30172 ft 465 kts 322°
2026-05-06 10:52 42.88766 -126.15239 30177 ft 465 kts 321°
2026-05-06 10:52 42.94120 -126.20077 30169 ft 465 kts 321°
2026-05-06 10:53 42.99534 -126.24980 30171 ft 466 kts 321°
2026-05-06 10:53 43.04931 -126.29878 30179 ft 466 kts 321°
2026-05-06 10:54 43.10302 -126.34762 30184 ft 467 kts 321°
2026-05-06 10:54 43.15707 -126.39689 30190 ft 467 kts 321°
2026-05-06 10:55 43.21109 -126.44624 30191 ft 466 kts 321°
2026-05-06 10:55 43.26496 -126.49557 30198 ft 466 kts 321°
2026-05-06 10:56 43.31871 -126.54490 30193 ft 466 kts 321°
2026-05-06 10:56 43.37246 -126.59434 30194 ft 467 kts 321°
2026-05-06 10:57 43.42650 -126.64415 30191 ft 466 kts 322°
2026-05-06 10:57 43.48198 -126.69050 30203 ft 468 kts 324°
2026-05-06 10:58 43.53804 -126.73518 30201 ft 468 kts 324°
2026-05-06 10:58 43.59462 -126.78040 30204 ft 469 kts 324°
2026-05-06 10:59 43.65077 -126.82547 30200 ft 470 kts 324°
2026-05-06 10:59 43.70731 -126.87097 30205 ft 469 kts 324°
2026-05-06 11:00 43.76329 -126.91618 30203 ft 469 kts 324°
2026-05-06 11:00 43.81953 -126.96168 30211 ft 468 kts 324°
2026-05-06 11:01 43.87574 -127.00727 30212 ft 468 kts 324°
2026-05-06 11:01 43.93180 -127.05284 30202 ft 468 kts 324°
2026-05-06 11:02 43.98783 -127.09848 30210 ft 468 kts 324°
2026-05-06 11:02 44.04363 -127.14404 30218 ft 469 kts 324°
2026-05-06 11:03 44.09987 -127.19004 30214 ft 470 kts 324°
2026-05-06 11:03 44.15619 -127.23623 30216 ft 470 kts 324°
2026-05-06 11:04 44.21212 -127.28220 30221 ft 470 kts 324°
2026-05-06 11:04 44.26844 -127.32859 30218 ft 470 kts 324°
2026-05-06 11:05 44.32462 -127.37495 30218 ft 469 kts 324°
2026-05-06 11:05 44.38023 -127.42096 30210 ft 469 kts 324°
2026-05-06 11:06 44.43646 -127.46761 30224 ft 469 kts 324°
2026-05-06 11:06 44.49228 -127.51401 30223 ft 469 kts 324°
2026-05-06 11:07 44.54831 -127.56069 30230 ft 468 kts 325°
2026-05-06 11:07 44.60413 -127.60729 30230 ft 468 kts 325°
2026-05-06 11:08 44.65968 -127.65379 30227 ft 468 kts 324°
2026-05-06 11:08 44.71539 -127.70050 30213 ft 467 kts 324°